Regional Weather Roundup
Issued by NWS

Home | Current Version | Previous Version | Text Only | Print | Product List | Glossary On
Versions: 1 2 3 4 5 6 7 8 9 10 11 12 13 14 15 16 17 18 19 20 21 22 23 24 25 26 27 28 29 30 31 32 33 34 35 36 37 38 39 40 41 42 43 44 45 46 47 48 49 50
000
ASUS44 KMEG 010010
RWRTN
TENNESSEE HOURLY STATE WEATHER ROUNDUP
NATIONAL WEATHER SERVICE MEMPHIS TN
700 PM CDT SAT APR 30 2016

TNZ002-004-019-021-049-052-054-088>092-010100-
WEST TENNESSEE

CITY           SKY/WX    TMP DP  RH WIND       PRES   REMARKS
MEMPHIS INTL   MOCLDY    74  64  71 CALM      29.81R
NWS MEMPHIS      N/A     74 N/A N/A MISG        N/A
JACKSON        PTCLDY    71  63  75 S3        29.84S
DYERSBURG      CLEAR     72  61  68 S7          N/A
UNION CITY     CLEAR     72  63  73 S10       29.82R
LEXINGTON      MOCLDY    70  66  88 CALM      29.85R
$$

TNZ008-025-027-028-033-062-065-066-010100-
NORTH MIDDLE TENNESSEE

CITY           SKY/WX    TMP DP  RH WIND       PRES   REMARKS
NASHVILLE      CLOUDY    70  66  87 SE6       29.86F
CLARKSVILLE    CLOUDY    68  64  87 NW6       29.87R
SMYRNA         CLOUDY    69  67  93 CALM      29.87F
COOKEVILLE     CLOUDY    70  68  94 CALM      29.91R
CROSSVILLE     RAIN      66  61  84 SE9G21    29.98R
$$

TNZ061-075-076-078-094-096-097-010100-
SOUTH MIDDLE TENNESSEE

CITY           SKY/WX    TMP DP  RH WIND       PRES   REMARKS
FAYETTEVILLE   PTCLDY    68  66  94 SE5       29.87F
TULLAHOMA      PTCLDY    66  66 100 CALM      29.90R
WINCHESTER     CLEAR     70  66  88 CALM      29.89F
MCMINNVILLE    MOCLDY    70  70 100 CALM      29.91S
COLUMBIA       PTCLDY   N/A N/A N/A SE5       29.84S
SHELBYVILLE    PTCLDY    70  70 100 E3        29.88F
$$

TNZ017-018-042-046-047-010100-
NORTHEAST TENNESSEE

CITY           SKY/WX    TMP DP  RH WIND       PRES   REMARKS
TRI CITIES     LGT RAIN  62  59  90 CALM      30.03F
$$

TNZ012-013-036-069-073-074-010100-
CENTRAL EAST TENNESSEE

CITY           SKY/WX    TMP DP  RH WIND       PRES   REMARKS
KNOXVILLE      RAIN      66  62  87 NW5       29.97R
OAK RIDGE      CLOUDY    65  63  93 NE3       29.97R
GATLINBURG     CLOUDY    64  61  88 W3        29.98R
MORRISTOWN     MOCLDY    66  61  82 E5        29.97S
$$

TNZ083-085-099-010100-
SOUTHEAST TENNESSEE

CITY           SKY/WX    TMP DP  RH WIND       PRES   REMARKS
CHATTANOOGA    CLOUDY    72  65  78 NE10      29.91R
$$

SKY/WX REPORTED AS FAIR MEANS FEW OR NO CLOUDS BELOW
12 THOUSAND FEET.





USA.gov is the U.S. government's official web portal to all federal, state and local government web resources and services.